| Date | Time | Temp. (oF) | Dew Point (oF) | Rel. Hum. (%) | Press. (in.) | Wind Dir. | Wind Speed (mph) | Hourly Rainfall (in.) |
|
|---|---|---|---|---|---|---|---|---|---|
| 1 | 06/09 | 00:00 | 61 | 60 | 100 | 29.90 | SSE | 4 | 0.00 |
| 2 | 06/08 | 23:00 | 62 | 62 | 100 | 29.89 | SE | 2 | 0.00 |
| 3 | 06/08 | 22:00 | 63 | 62 | 99 | 29.89 | E | 3 | 0.00 |
| 4 | 06/08 | 21:00 | 63 | 62 | 97 | 29.88 | ENE | 2 | 0.00 |
| 5 | 06/08 | 20:00 | 64 | 62 | 95 | 29.88 | ESE | 3 | 0.00 |
| 6 | 06/08 | 19:00 | 64 | 62 | 94 | 29.87 | S | 2 | 0.00 |
| 7 | 06/08 | 18:00 | 64 | 62 | 94 | 29.86 | ESE | 4 | 0.00 |
| 8 | 06/08 | 17:00 | 63 | 62 | 97 | 29.88 | ESE | 2 | 0.00 |
| 9 | 06/08 | 16:00 | 63 | 61 | 95 | 29.90 | SSW | 0 | 0.00 |
| 10 | 06/08 | 15:00 | 64 | 61 | 91 | 29.90 | S | 4 | 0.00 |
| 11 | 06/08 | 14:00 | 64 | 61 | 92 | 29.91 | SSW | 5 | 0.00 |
| 12 | 06/08 | 13:00 | 63 | 60 | 93 | 29.91 | S | 2 | 0.00 |
| 13 | 06/08 | 12:00 | 63 | 61 | 94 | 29.91 | ENE | 4 | 0.00 |
| 14 | 06/08 | 11:00 | 63 | 61 | 95 | 29.91 | S | 3 | 0.00 |
| 15 | 06/08 | 10:00 | 62 | 62 | 100 | 29.91 | E | 3 | 0.00 |
| 16 | 06/08 | 09:00 | 61 | 60 | 100 | 29.91 | ESE | 0 | 0.00 |
| 17 | 06/08 | 08:00 | 60 | 59 | 100 | 29.91 | SE | 0 | 0.00 |
| 18 | 06/08 | 07:00 | 59 | 59 | 100 | 29.89 | NNE | 0 | 0.00 |
| 19 | 06/08 | 06:00 | 59 | 59 | 100 | 29.88 | NW | 1 | 0.00 |
| 20 | 06/08 | 05:00 | 58 | 58 | 100 | 29.86 | NNW | 0 | 0.00 |
| 21 | 06/08 | 04:00 | 58 | 58 | 100 | 29.86 | NNW | 0 | 0.00 |
| 22 | 06/08 | 03:00 | 58 | 58 | 100 | 29.85 | NNW | 2 | 0.00 |
| 23 | 06/08 | 02:00 | 59 | 59 | 100 | 29.87 | NW | 2 | 0.00 |
| 24 | 06/08 | 01:00 | 59 | 59 | 100 | 29.86 | NW | 2 | 0.00 |